Flag for U.S.A. Weather past 2 weeks in Sacramento, California, U.S.A.

Now
59 °F

Clear.


Feels Like: 60 °F
Forecast: 52 / 78 °F
Wind: 3 mph from Northwest

Location: Sacramento Executive Airport


UV Index: 5 (Moderate)

Visibility: 10 mi


Pressure: 29.82 "Hg

Humidity: 64%

Dew point: 47 °F

Location of SacramentoLocation

Historic Weather in Sacramento

°F

Sacramento temperature yesterday

Maximum temperature yesterday: 81 °F (at 2:53 PM)
Minimum temperature yesterday: 52 °F (at 4:53 AM)
Average temperature yesterday: 65 °F

Past Weeks' High & Low Weather Summary

 TemperatureHumidityPressure
High83 °F (Apr 8, 4:53 PM)100% (Apr 6, 5:53 AM)30.22 "Hg (Apr 6, 5:53 AM)
Low42 °F (Apr 5, 6:53 AM)21% (Apr 13, 3:53 PM)29.75 "Hg (Apr 17, 4:53 PM)
Average62 °F68%29.97 "Hg
* Reported Apr 3 3:53 AM — Apr 18 3:53 AM, Sacramento, Weather by CustomWeather, © 2014

Note: Actual official high and low records may vary slightly from our data, if they occured in-between our weather recording intervals... More about our weather records

Advertising

Historic Weather Conditions — Data for Previous 24 hours

 ConditionsComfort  
Time TempWeatherWind HumidityBarometerVisibility
3:53 AM
Apr 18
59 °FClear.3 mph64%29.82 "Hg10 mi
2:53 AM60 °FClear.6 mph62%29.82 "Hg10 mi
1:53 AM61 °FClear.7 mph56%29.82 "Hg10 mi
12:53 AM57 °FClear.No wind74%29.81 "Hg10 mi
11:53 PM
Apr 17
58 °FClear.No wind78%29.81 "Hg10 mi
10:53 PM60 °FClear.No wind72%29.79 "Hg10 mi
9:53 PM62 °FClear.5 mph70%29.80 "Hg10 mi
8:53 PM64 °FClear.10 mph68%29.77 "Hg10 mi
7:53 PM66 °FSunny.8 mph63%29.75 "Hg10 mi
6:53 PM70 °FSunny.14 mph55%29.75 "Hg10 mi
5:53 PM74 °FSunny.13 mph50%29.75 "Hg10 mi
4:53 PM77 °FSunny.16 mph48%29.75 "Hg10 mi
3:53 PM78 °FSunny.16 mph46%29.76 "Hg10 mi
2:53 PM81 °FSunny.8 mph42%29.78 "Hg10 mi
1:53 PM80 °FSunny.9 mph39%29.79 "Hg10 mi
12:53 PM78 °FSunny.5 mph48%29.80 "Hg10 mi
11:53 AM75 °FSunny.No wind48%29.82 "Hg10 mi
10:53 AM72 °FSunny.5 mph55%29.82 "Hg10 mi
9:53 AM67 °FSunny.3 mph61%29.82 "Hg10 mi
8:53 AM63 °FSunny.3 mph70%29.80 "Hg10 mi
7:53 AM59 °FSunny.No wind81%29.79 "Hg10 mi
6:53 AM53 °FClear.No wind86%29.78 "Hg10 mi
5:53 AM55 °FClear.No wind80%29.77 "Hg10 mi
4:53 AM52 °FClear.No wind89%29.78 "Hg10 mi
Weather by CustomWeather, © 2014

See weather overview